Location: Bonny Doon Airfield
(37.0704°N, 122.1252°W)
Time: 00:55:24
(UTC-07:00)

Vanguard 2 - Pass Details

Date: 15 December 2017
Orbit: 553 x 2939 km, 32.9° (Epoch: 20 April)

Event Time Altitude Azimuth Distance (km) Brightness Sun altitude
Rises 19:58:44 0° 267° (W) 2,966 11.6 -36.2°
Reaches altitude 10° 20:01:56 10° 245° (WSW) 1,887 10.2 -36.8°
Enters shadow 20:02:17 11° 241° (WSW) 1,796 10.0 -36.9°
Maximum altitude 20:04:29 16° 206° (SSW) 1,483 - -37.3°
Drops below altitude 10° 20:06:57 10° 167° (SSE) 1,821 - -37.8°
Sets 20:09:57 0° 144° (SE) 2,803 - -38.4°
